Regional Weather Roundup
Issued by NWS

Home | Current Version | Previous Version | Text Only | Print | Product List | Glossary Off
Versions: 1 2 3 4 5 6 7 8 9 10 11 12 13 14 15 16 17 18 19 20 21 22 23 24 25 26 27 28 29 30 31 32 33 34 35 36 37 38 39 40 41 42 43 44 45 46 47 48 49 50

000
ASUS45 KPSR 222200
RWRAZ

PRELIMINARY ARIZONA REGIONAL HOURLY WEATHER ROUNDUP
NATIONAL WEATHER SERVICE PHOENIX AZ
300 PM MST FRI AUG 22 2014

NOTE: FAIR INDICATES FEW OR NO CLOUDS BELOW 12,000 FEET WITH NO
SIGNIFICANT WEATHER AND/OR OBSTRUCTIONS TO VISIBILITY.

AZZ001>003-036-222300-
NORTHWEST ARIZONA

CITY           SKY/WX    TMP DP  RH WIND       PRES   REMARKS
KINGMAN        PTSUNNY   82  52  35 SW10      30.01F
$$

AZZ004>008-015-016-018-222300-
NORTH CENTRAL ARIZONA

CITY           SKY/WX    TMP DP  RH WIND       PRES   REMARKS
GRAND CANYON   MOSUNNY   70  43  37 S15G23    30.20F
WILLIAMS       MOSUNNY   68  50  52 SW9G21    30.27F
PRESCOTT       PTSUNNY   74  51  44 SW13      30.13F
FLAGSTAFF      MOSUNNY   64  48  56 SW14      30.23F
PAYSON         PTSUNNY   75  52  43 W14G20    30.15F
PAGE           CLOUDY    81  47  30 VRB6      30.01F
$$

AZZ009>014-017-222300-
NORTHEAST ARIZONA

CITY           SKY/WX    TMP DP  RH WIND       PRES   REMARKS
WINSLOW        NOT AVBL
SAINT JOHNS    CLOUDY    69  53  56 NW14      30.16S
$$

AZZ023-222300-
GREATER PHOENIX AREA

CITY           SKY/WX    TMP DP  RH WIND       PRES   REMARKS
PHOENIX        MOSUNNY   91  60  35 CALM      29.89F
GLENDALE       MOSUNNY   90  63  40 S7        29.92F
DEER VALLEY    MOSUNNY   88  58  36 S7        29.91F
SCOTTSDALE     SUNNY     88  58  36 VRB3      29.93F
MESA-FALCON    MOSUNNY   90  57  33 SW6       29.91F
MESA-GATEWAY   MOSUNNY   91  54  27 CALM      29.93
CHANDLER       MOSUNNY   91  57  31 W8        29.90F
$$

AZZ027-028-222300-
SOUTHWEST MARICOPA COUNTY AND PINAL COUNTY

CITY           SKY/WX    TMP DP  RH WIND       PRES   REMARKS
CASA GRANDE    MOSUNNY   91  57  31 W8        29.91F
GILA BEND      PTCLDY    91  59  33 SW6       29.82R
$$

AZZ503-504-507>509-222300-
SOUTHEAST ARIZONA

CITY           SKY/WX    TMP DP  RH WIND       PRES   REMARKS
TUCSON         CLOUDY    88  55  32 W13       29.99F
RYAN FIELD       N/A     90  57  33 SW7G17    29.98F
NOGALES        MOSUNNY   81  59  47 W8        30.07F
SIERRA VISTA   PTSUNNY   68  66  94 E10       30.14F
DOUGLAS        LGT RAIN  68  63  84 S16G24    30.11S
SAFFORD        MOSUNNY   86  53  32 VRB6      29.98F
$$

AZZ020-021-025-026-031-222300-
SOUTHWEST ARIZONA

CITY           SKY/WX    TMP DP  RH WIND       PRES   REMARKS
YUMA           NOT AVBL
$$

CAZ031-033-041-043-047-048-061-222300-
SOUTHERN CALIFORNIA

CITY           SKY/WX    TMP DP  RH WIND       PRES   REMARKS
DOWNTOWN L.A.  SUNNY     80  64  58 VRB5      29.93F
L.A. AIRPORT   MOSUNNY   75  63  66 W12       29.95F
SAN DIEGO      MOSUNNY   78  62  57 W10       29.95F
BURBANK        SUNNY     84  59  42 S9        29.93F
ONTARIO        MOSUNNY   90  58  33 W15G23    29.92F
RIVERSIDE      SUNNY     89  62  40 W10       29.91F
PALM SPRINGS   SUNNY     95  58  28 E9        29.85F
EL CENTRO NAS  MOSUNNY   91  64  40 VRB5      29.83F
IMPERIAL       SUNNY     90  64  42 E7        29.83F
BLYTHE         SUNNY     89  60  37 CALM      29.86F
$$

NVZ020-UTZ003-222300-
SOUTHERN NEVADA-UTAH

CITY           SKY/WX    TMP DP  RH WIND       PRES   REMARKS
LAS VEGAS      NOT AVBL
SALT LAKE CITY CLOUDY    70  57  63 N18       29.90F
$$

NMZ009-TXZ055-222300-
NEW MEXICO-WEST TEXAS

CITY           SKY/WX    TMP DP  RH WIND       PRES   REMARKS
ALBUQUERQUE    PTSUNNY   69  56  62 N3        30.17F
EL PASO        CLOUDY    75  62  64 S5        30.08F
$$


........................KEY........................
SKY/WX - SKY CONDITION/WEATHER
TMP    - TEMPERATURE IN FAHRENHEIT
DP     - DEW POINT IN FAHRENHEIT
RH     - RELATIVE HUMIDITY IN PERCENT
WIND   - DIRECTION AND SPEED IN MILES PER HOUR (MPH)
VRB    - VARIABLE WIND DIRECTION
PRES   - MEAN SEA LEVEL PRESSURE IN INCHES OF MERCURY
         F - FALLING PRESSURE   R - RISING PRESSURE
         S - STEADY PRESSURE
VSB    - VISIBILITY IN MILES
HX     - HEAT INDEX IN FAHRENHEIT
WCI    - WIND CHILL INDEX IN FAHRENHEIT
TC     - TEMPERATURE IN CELSIUS WHICH IS ALSO KNOWN AS
         TEMPERATURE IN CENTIGRADE
AFB    - AIR FORCE BASE
         LUKE AFB IS LUKE AIR FORCE BASE
         DAVIS-MONTHAN IS DAVIS-MONTHAN AIR FORCE BASE
NAS    - NAVAL AIR STATION
         EL CENTRO NAS IS EL CENTRO NAVAL AIR STATION
N/A    - NOT AVAILABLE



USA.gov is the U.S. government's official web portal to all federal, state and local government web resources and services.